Weather History for Appleton, WI

Change the Weather History Date:

Thursday, October 3, 2013

  Actual Average Record
Temperature  
Mean Temperature 62 °F -  
Max Temperature 69 °F 63 °F 84 °F (2005)
Min Temperature 55 °F 44 °F 30 °F (1987)
Degree Days  
Heating Degree Days 3    
Growing Degree Days 12 (Base 50)    
Moisture  
Dew Point 49 °F    
Average Humidity 67    
Maximum Humidity 88    
Minimum Humidity 42    
Precipitation  
Precipitation 0.00 in - - ()
Sea Level Pressure  
Sea Level Pressure 29.93 in    
Wind  
Wind Speed 8 mph (East)    
Max Wind Speed 16 mph    
Max Gust Speed 18 mph    
Visibility 10 miles    
Events      
Averages and records for this station are not official NWS values.
T = Trace of Precipitation, MM = Missing Value Source: NWS Daily Summary

Daily Weather History Graph

Daily Weather History Graph

Search for Another Location

Airport:

Trip Planner

Search our weather history database for the weather conditions in past years. The results will help you decide how hot, cold, wet, or windy it might be!

Date:

Astronomy

Oct. 03, 2013 Rise Set
Actual Time 6:54 AM CDT 6:30 PM CDT
Civil Twilight 6:25 AM CDT 6:59 PM CDT
Nautical Twilight 5:52 AM CDT 7:33 PM CDT
Astronomical Twilight 5:18 AM CDT 8:06 PM CDT
Moon 5:25 AM CDT (10/3) 5:40 PM CDT (10/3)
Length of Visible Light 12h 33m
Length of Day
11h 36m
Waning Crescent, 2% of the Moon is Illuminated
Oct 3
Waning Crescent
Oct 4
New
Oct 11
First Quarter
Oct 18
Full
Oct 26
Last Quarter

Hourly Weather History & Observations

Time (CDT) Temp. Dew Point Humidity Pressure Visibility Wind Dir Wind Speed Gust Speed Precip Events Conditions
12:15 AM 55.4 °F 41.0 °F 58% 29.99 in 10.0 mi SSE 5.8 mph - N/A   Clear
12:55 AM 57.2 °F 42.8 °F 59% 29.97 in 10.0 mi SE 8.1 mph - N/A   Mostly Cloudy
1:15 AM 59.0 °F 41.0 °F 51% 29.97 in 10.0 mi SE 11.5 mph - N/A   Mostly Cloudy
1:35 AM 60.8 °F 37.4 °F 42% 29.97 in 10.0 mi SE 11.5 mph - N/A   Overcast
1:55 AM 60.8 °F 37.4 °F 42% 29.97 in 10.0 mi SSE 9.2 mph - N/A   Overcast
2:15 AM 59.0 °F 41.0 °F 51% 29.97 in 10.0 mi SE 6.9 mph - N/A   Mostly Cloudy
2:35 AM 59.0 °F 42.8 °F 55% 29.96 in 10.0 mi SE 6.9 mph - N/A   Mostly Cloudy
2:55 AM 59.0 °F 42.8 °F 55% 29.96 in 10.0 mi SE 5.8 mph - N/A   Overcast
3:15 AM 59.0 °F 44.6 °F 59% 29.95 in 10.0 mi SE 9.2 mph - N/A   Mostly Cloudy
3:35 AM 59.0 °F 46.4 °F 63% 29.94 in 10.0 mi SSE 9.2 mph - N/A   Scattered Clouds
3:55 AM 59.0 °F 46.4 °F 63% 29.94 in 10.0 mi SSE 9.2 mph - N/A   Scattered Clouds
4:15 AM 59.0 °F 46.4 °F 63% 29.93 in 10.0 mi SE 8.1 mph - N/A   Mostly Cloudy
4:35 AM 59.0 °F 48.2 °F 67% 29.92 in 10.0 mi SE 9.2 mph - N/A   Mostly Cloudy
4:55 AM 59.0 °F 50.0 °F 72% 29.92 in 10.0 mi SE 9.2 mph - N/A   Mostly Cloudy
5:45 AM 57.2 °F 48.2 °F 72% 29.95 in 10.0 mi North 16.1 mph - N/A   Overcast
7:10 AM 55.4 °F 46.4 °F 72% 29.92 in 10.0 mi East 5.8 mph - N/A   Mostly Cloudy
7:45 AM 55.4 °F 48.2 °F 77% 29.94 in 10.0 mi Calm Calm - N/A   Overcast
8:45 AM 55.4 °F 50.0 °F 82% 29.93 in 10.0 mi NNE 6.9 mph - N/A   Mostly Cloudy
9:20 AM 57.2 °F 51.8 °F 82% 29.92 in 10.0 mi NNE 4.6 mph - N/A   Mostly Cloudy
9:45 AM 59.0 °F 51.8 °F 77% 29.92 in 10.0 mi ENE 3.5 mph - N/A   Mostly Cloudy
10:45 AM 62.6 °F 53.6 °F 72% 29.92 in 10.0 mi Variable 4.6 mph - N/A   Mostly Cloudy
11:45 AM 64.4 °F 55.4 °F 73% 29.94 in 10.0 mi Calm Calm - N/A   Mostly Cloudy
12:45 PM 66.2 °F 55.4 °F 68% 29.92 in 10.0 mi Variable 5.8 mph - N/A   Mostly Cloudy
1:31 PM 69.8 °F 57.2 °F 64% 29.90 in 10.0 mi Variable 5.8 mph - N/A   Mostly Cloudy
1:45 PM 69.8 °F 57.2 °F 64% 29.90 in 10.0 mi Variable 5.8 mph - N/A   Mostly Cloudy
2:45 PM 69.8 °F 57.2 °F 64% 29.89 in 10.0 mi ENE 6.9 mph - N/A   Overcast
3:45 PM 68.0 °F 55.4 °F 64% 29.88 in 10.0 mi ENE 10.4 mph - N/A   Overcast
4:45 PM 64.4 °F 53.6 °F 68% 29.89 in 10.0 mi NE 12.7 mph - N/A   Mostly Cloudy
5:45 PM 62.6 °F 53.6 °F 72% 29.90 in 10.0 mi ENE 13.8 mph - N/A   Overcast
6:45 PM 62.6 °F 55.4 °F 77% 29.91 in 10.0 mi NE 11.5 mph 17.3 mph N/A   Overcast
7:45 PM 60.8 °F 57.2 °F 88% 29.91 in 7.0 mi ENE 10.4 mph 16.1 mph N/A   Overcast
8:45 PM 59.0 °F 55.4 °F 88% 29.92 in 7.0 mi ENE 8.1 mph 16.1 mph N/A   Overcast
9:45 PM 59.0 °F 51.8 °F 77% 29.91 in 7.0 mi ENE 10.4 mph 18.4 mph N/A   Overcast
11:35 PM 59.0 °F 51.8 °F 77% 29.92 in 10.0 mi East 6.9 mph - N/A   Overcast
11:55 PM 59.0 °F 51.8 °F 77% 29.93 in 10.0 mi East 8.1 mph - N/A   Overcast